Location: Ethel Rock
(53.4667°N, 4.5667°W)
Time: 01:18:31
(UTC+00:00)

Resurs 1-4 Rocket - Pass Details

Date: 24 October 2020
Orbit: 800 x 813 km, 98.6° (Epoch: 26 November)

Event Time Altitude Azimuth Distance (km) Brightness Sun altitude
Rises 04:26:24 0° 7° (N) 3,350 5.6 -23.8°
Reaches altitude 10° 04:30:00 10° 342° (NNW) 2,415 4.5 -23.2°
Enters shadow 04:31:03 12° 331° (NNW) 2,263 4.2 -23.1°
